[[{"header":{"parameterUnit":"m.s-1","parameterCategory":1,"la1":30.2991,"la2":30.254,"lo1":-89.0895,"lo2":-89.0444,"dy":0.0017,"dx":0.0017,"nx":28,"ny":28,"refTime":"2023-11-13T03:00:00:Z","depth":0,"parameterNumber":2,"parameterNumberName":"U-component_of_WINDS"},"data":[0,0,0,0,0,0,0,0,0,0,0,0,0,0,0,0,0,0,0,0,0,0,0,0,0,0,0,0,0,0,0,0,0,0,0,0,0,0,0,0,0,0,0,0,0,0,0,0,0,0,0,0,0,0,0,0,0,0,-3.2938,-3.2939,0,-3.3019,-3.302,-3.3021,-3.2957,-3.2954,-3.2951,-3.2949,-3.3033,-3.3038,-3.3042,0,0,0,0,0,0,0,0,0,0,0,0,0,-3.2729,-3.2733,-3.2938,-3.2939,-3.294,-3.3019,-3.302,-3.3021,-3.2957,-3.2954,-3.2951,-3.2947,-3.3031,-3.3037,-3.3043,0,0,0,0,0,0,0,0,0,0,0,0,0,-3.2816,-3.2735,-3.2938,-3.2918,-3.2917,-3.3018,-3.302,-3.3021,-3.2958,-3.2954,-3.295,-3.2946,-3.3029,-3.3036,-3.3044,-3.317,0,0,-3.3065,-3.3069,0,0,0,0,0,0,0,0,-3.2811,-3.2824,-3.292,-3.2919,-3.2918,-3.2973,-3.2977,-3.3071,-3.2959,-3.2942,-3.2949,-3.2944,-3.3017,-3.3024,-3.3049,-3.3174,-3.3177,-3.3066,-3.307,-3.3074,-3.3076,0,0,0,0,0,0,0,-3.2805,-3.282,-3.297,-3.2921,-3.292,-3.2905,-3.2913,-3.2994,-3.3001,-3.2943,-3.2939,-3.2949,-3.3015,-3.3042,-3.305,-3.3179,-3.3066,-3.3072,-3.3077,-3.3079,-3.3412,-3.3416,0,0,0,0,0,0,-3.2801,-3.2815,-3.2967,-3.2972,-3.2853,-3.2912,-3.2921,-3.296,-3.3,-3.3003,-3.2953,-3.2946,-3.3032,-3.3042,-3.3053,-3.3204,-3.3073,-3.308,-3.3084,-3.3408,-3.3413,-3.3418,0,0,0,0,0,0,-3.2797,-3.2815,-3.2964,-3.2893,-3.291,-3.292,-3.2964,-3.2964,-3.299,-3.3007,-3.3008,-3.2979,-3.3029,-3.3043,-3.3141,-3.3206,-3.3083,-3.309,-3.3402,-3.3409,-3.3415,-3.3508,0,0,0,0,0,0,-3.2791,-3.2814,-3.2862,-3.2894,-3.2914,-3.3051,-3.2968,-3.2968,-3.3003,-3.2995,-3.3032,-3.3034,-3.3027,-3.3131,-3.3148,-3.3214,-3.3096,-3.3396,-3.3405,-3.3413,-3.3499,-3.3517,-3.3532,0,0,0,0,0,-3.2784,-3.2885,-3.2865,-3.2883,-3.2974,-3.3055,-3.3067,-3.3056,-3.3008,-3.3057,-3.3068,-3.3033,-3.3196,-3.3142,-3.3161,-3.323,-3.3392,-3.3403,-3.3413,-3.3492,-3.3514,-3.3532,0,0,0,0,0,0,-3.286,-3.2889,-3.2867,-3.2981,-3.3016,-3.3044,-3.3105,-3.3079,-3.3128,-3.3119,-3.3103,-3.3112,-3.3216,-3.3232,-3.3171,-3.3354,-3.3287,-3.3301,-3.334,-3.3361,-3.3377,-3.3372,-3.3102,0,0,0,0,0,-3.289,-3.2953,-3.2974,-3.3073,-3.3092,-3.3096,-3.313,-3.3119,-3.3154,-3.3169,-3.3187,-3.3224,-3.3283,-3.3323,-3.3378,-3.35,-3.3508,-3.3557,-3.3574,-3.3587,-3.3601,-3.3668,-3.369,-3.3451,-3.3451,-3.3451,0,0,-3.2954,-3.2977,-3.3017,-3.3089,-3.3115,-3.3181,-3.3109,-3.3181,-3.323,-3.318,-3.3275,-3.3289,-3.3329,-3.344,-3.349,-3.3457,-3.3668,-3.36,-3.3611,-3.3617,-3.3681,-3.3703,-3.3723,-3.3458,-3.3457,-3.3456,0,0,-3.3103,-3.3126,-3.3211,-3.3238,-3.3278,-3.328,-3.33,-3.3332,-3.334,-3.3435,-3.3399,-3.3457,-3.3559,-3.3589,-3.3618,-3.3778,-3.3748,-3.3796,-3.3884,-3.3949,-3.3968,-3.3985,-3.4043,-3.4064,-3.3809,-3.3809,-3.3809,0,-3.3176,-3.3274,-3.3259,-3.3334,-3.3367,-3.3324,-3.3411,-3.3438,-3.3495,-3.3519,-3.348,-3.3608,-3.3632,-3.375,-3.3789,-3.3813,-3.3837,-3.3793,-3.3966,-3.3983,-3.3998,-3.4054,-3.4076,-3.3815,-3.3814,-3.3814,-3.3813,0,-3.3363,-3.3431,-3.3495,-3.3551,-3.3591,-3.3671,-3.3669,-3.3711,-3.3696,-3.3702,-3.3799,-3.3825,-3.3886,-3.3913,-3.3899,-3.403,-3.4008,-3.3968,-3.3901,-3.4027,-3.4079,-3.41,-3.3823,-3.3821,-3.3819,-3.3818,0,0,-3.3564,-3.3609,-3.3633,-3.3658,-3.3699,-3.3751,-3.383,-3.3889,-3.3926,-3.3966,-3.4033,-3.412,-3.4084,-3.4117,-3.4105,-3.4163,-3.4289,-3.4116,-3.4117,-3.4149,-3.4437,-3.4468,-3.4493,-3.4269,-3.4273,-3.4276,-3.4434,0,-3.3716,-3.3853,-3.3842,-3.3972,-3.4035,-3.3995,-3.4064,-3.4097,-3.4104,-3.4159,-3.4167,-3.423,-3.4177,-3.4196,-3.4251,-3.4262,-3.4347,-3.4251,-3.4332,-3.4336,-3.4326,-3.452,-3.4552,-3.47,-3.4454,-3.4458,-3.446,0,-3.3912,-3.3959,-3.4095,-3.4127,-3.4153,-3.4215,-3.4268,-3.4321,-3.4357,-3.4359,-3.4395,-3.4374,-3.4454,-3.4383,-3.4494,-3.4429,-3.4461,-3.4472,-3.4477,-3.4486,-3.4407,-3.4535,-3.4747,-3.477,-3.4492,-3.4489,-3.4487,0,-3.4047,-3.4144,-3.4238,-3.426,-3.4299,-3.4344,-3.4362,-3.4394,-3.4431,-3.4477,-3.4501,-3.4556,-3.4587,-3.463,-3.4625,-3.4574,-3.4738,-3.4667,-3.4743,-3.4743,-3.4781,-3.4779,-3.5003,-3.4799,-3.4799,-3.4798,-3.4798,0,-3.4219,-3.4304,-3.4299,-3.4358,-3.4453,-3.4438,-3.4533,-3.4546,-3.4575,-3.4635,-3.4603,-3.4661,-3.465,-3.4707,-3.4704,-3.4797,-3.481,-3.4815,-3.4813,-3.4819,-3.4818,-3.4841,-3.4831,-3.4804,-3.4803,-3.4802,-3.4801,0,-3.4386,-3.4386,-3.4487,-3.4515,-3.4524,-3.4593,-3.4617,-3.4673,-3.4677,-3.4754,-3.4771,-3.4779,-3.4845,-3.4843,-3.4918,-3.4916,-3.5031,-3.5016,-3.5019,-3.5017,-3.5094,-3.5087,-3.5341,-3.5374,-3.5148,-3.515,-3.5152,0,-3.4497,-3.4562,-3.4597,-3.4635,-3.4657,-3.4718,-3.4755,-3.4743,-3.4783,-3.4829,-3.488,-3.4943,-3.4993,-3.5101,-3.5113,-3.5171,-3.5158,-3.5243,-3.5167,-3.5171,-3.5162,-3.5159,-3.5166,-3.5259,-3.5261,-3.5264,-3.5265,0,-3.4694,-3.4691,-3.4745,-3.48,-3.4845,-3.4887,-3.4926,-3.4959,-3.4952,-3.4998,-3.5066,-3.5104,-3.5181,-3.5245,-3.53,-3.5319,-3.5292,-3.5289,-3.531,-3.5317,-3.5317,-3.532,-3.5062,-3.5284,-3.5282,-3.528,-3.5279,-3.5279,-3.4838,-3.4894,-3.4928,-3.499,-3.5018,-3.5055,-3.5109,-3.5119,-3.5175,-3.5237,-3.5226,-3.5302,-3.5336,-3.5408,-3.5432,-3.5491,-3.5461,-3.5491,-3.5499,-3.5508,-3.5517,-3.5306,-3.5501,-3.55,-3.55,-3.5499,-3.5499,0,-3.5035,-3.5054,-3.5111,-3.5167,-3.5216,-3.5184,-3.5226,-3.5269,-3.5336,-3.537,-3.542,-3.5498,-3.5559,-3.5576,-3.5635,-3.568,-3.5669,-3.5696,-3.5693,-3.5699,-3.5539,-3.5516,-3.5704,-3.5704,-3.5704,-3.5704,-3.5704,-3.5704,-3.5143,-3.5237,-3.5238,-3.5346,-3.5364,-3.5438,-3.5465,-3.5499,-3.5527,-3.5615,-3.5665,-3.5676,-3.5703,-3.5764,-3.582,-3.5823,-3.5847,-3.588,-3.5879,-3.573,-3.571,-3.569,-3.5668,-3.5885,-3.5885,-3.6033,-3.6034,-3.6035]},{"header":{"parameterUnit":"m.s-1","parameterCategory":1,"la1":30.2991,"la2":30.254,"lo1":-89.0895,"lo2":-89.0444,"dy":0.0017,"dx":0.0017,"nx":28,"ny":28,"refTime":"2023-11-13T03:00:00:Z","depth":0,"parameterNumber":3,"parameterNumberName":"V-component_of_WINDS"},"data":[0,0,0,0,0,0,0,0,0,0,0,0,0,0,0,0,0,0,0,0,0,0,0,0,0,0,0,0,0,0,0,0,0,0,0,0,0,0,0,0,0,0,0,0,0,0,0,0,0,0,0,0,0,0,0,0,0,0,-4.1125,-4.1125,0,-4.1149,-4.1149,-4.115,-4.1101,-4.11,-4.1098,-4.1096,-4.1119,-4.1121,-4.1124,0,0,0,0,0,0,0,0,0,0,0,0,0,-4.1034,-4.1035,-4.1125,-4.1125,-4.1125,-4.1149,-4.115,-4.115,-4.1101,-4.1099,-4.1098,-4.1096,-4.1119,-4.1121,-4.1124,0,0,0,0,0,0,0,0,0,0,0,0,0,-4.1067,-4.1036,-4.1125,-4.1104,-4.1103,-4.1149,-4.115,-4.115,-4.1102,-4.1099,-4.1097,-4.1095,-4.1118,-4.1121,-4.1124,-4.1191,0,0,-4.1134,-4.1135,0,0,0,0,0,0,0,0,-4.1065,-4.107,-4.1107,-4.1106,-4.1104,-4.112,-4.1126,-4.1164,-4.1102,-4.1102,-4.1096,-4.1094,-4.1121,-4.1124,-4.1134,-4.1192,-4.1193,-4.1134,-4.1136,-4.1137,-4.1138,0,0,0,0,0,0,0,-4.1063,-4.1069,-4.1134,-4.1107,-4.1106,-4.1093,-4.1095,-4.1133,-4.1125,-4.1102,-4.1098,-4.1102,-4.112,-4.1131,-4.1134,-4.1194,-4.1134,-4.1137,-4.1139,-4.114,-4.1307,-4.131,0,0,0,0,0,0,-4.1064,-4.1068,-4.1134,-4.1135,-4.1078,-4.1096,-4.1099,-4.1117,-4.1124,-4.1123,-4.1104,-4.11,-4.1127,-4.113,-4.1135,-4.1213,-4.1137,-4.114,-4.1142,-4.1305,-4.1308,-4.1311,0,0,0,0,0,0,-4.1062,-4.107,-4.1133,-4.11,-4.1107,-4.1101,-4.1121,-4.1119,-4.113,-4.1126,-4.1124,-4.1117,-4.1125,-4.113,-4.1177,-4.1213,-4.1142,-4.1144,-4.1302,-4.1306,-4.1309,-4.1371,0,0,0,0,0,0,-4.1059,-4.107,-4.1096,-4.1101,-4.1109,-4.1176,-4.1124,-4.1121,-4.1135,-4.113,-4.1137,-4.1136,-4.1123,-4.1173,-4.1181,-4.1216,-4.1147,-4.1298,-4.1303,-4.1308,-4.1366,-4.1377,-4.1386,0,0,0,0,0,-4.1056,-4.1112,-4.1097,-4.1106,-4.1142,-4.1178,-4.1183,-4.1168,-4.1139,-4.1164,-4.1162,-4.1136,-4.1208,-4.1178,-4.1186,-4.1224,-4.1296,-4.1302,-4.1308,-4.1361,-4.1375,-4.1386,0,0,0,0,0,0,-4.111,-4.1112,-4.1096,-4.1156,-4.1167,-4.117,-4.1202,-4.1182,-4.1202,-4.1196,-4.1175,-4.1177,-4.1228,-4.123,-4.1197,-4.1288,-4.1247,-4.1255,-4.1285,-4.1298,-4.1308,-4.1306,-4.1149,0,0,0,0,0,-4.1129,-4.1159,-4.1159,-4.1211,-4.1218,-4.1209,-4.1224,-4.1212,-4.1223,-4.1227,-4.1228,-4.1239,-4.1264,-4.1281,-4.1304,-4.1366,-4.1366,-4.1395,-4.1405,-4.1414,-4.142,-4.1453,-4.1466,-4.133,-4.1329,-4.1329,0,0,-4.1168,-4.1173,-4.1193,-4.1222,-4.123,-4.126,-4.1214,-4.1248,-4.1271,-4.1232,-4.1277,-4.1278,-4.1289,-4.1344,-4.1368,-4.1347,-4.1458,-4.1421,-4.1428,-4.143,-4.146,-4.1473,-4.1484,-4.1333,-4.1333,-4.1332,0,0,-4.1255,-4.1262,-4.1306,-4.1315,-4.1327,-4.1321,-4.1331,-4.1337,-4.1336,-4.1381,-4.1353,-4.1378,-4.1422,-4.1431,-4.1441,-4.1531,-4.1508,-4.1539,-4.1591,-4.1623,-4.1633,-4.1643,-4.1674,-4.1686,-4.1545,-4.1546,-4.1546,0,-4.1302,-4.1348,-4.1331,-4.1368,-4.1381,-4.1348,-4.1392,-4.1401,-4.142,-4.1429,-4.1406,-4.1459,-4.1464,-4.1521,-4.1543,-4.1552,-4.1563,-4.1538,-4.1633,-4.1643,-4.1651,-4.1681,-4.1693,-4.1549,-4.1549,-4.1548,-4.1548,0,-4.1405,-4.1438,-4.1471,-4.1491,-4.1508,-4.1548,-4.1536,-4.1555,-4.1541,-4.1537,-4.1582,-4.1587,-4.161,-4.1622,-4.1608,-4.1676,-4.1663,-4.1637,-4.1595,-4.1668,-4.1696,-4.1707,-4.1555,-4.1553,-4.1552,-4.1551,0,0,-4.1528,-4.1537,-4.155,-4.1558,-4.1568,-4.1593,-4.1631,-4.1654,-4.167,-4.1684,-4.1715,-4.1752,-4.1728,-4.1739,-4.1726,-4.1754,-4.1824,-4.1724,-4.1724,-4.1742,-4.1899,-4.1918,-4.1932,-4.1809,-4.1811,-4.1813,-4.1898,0,-4.1614,-4.168,-4.1666,-4.1731,-4.176,-4.1728,-4.1761,-4.1771,-4.1768,-4.1791,-4.1787,-4.1814,-4.178,-4.1787,-4.1813,-4.181,-4.1855,-4.1804,-4.1837,-4.1838,-4.1835,-4.1947,-4.1968,-4.2048,-4.1909,-4.191,-4.1912,0,-4.1724,-4.1742,-4.181,-4.1815,-4.1827,-4.1857,-4.1877,-4.19,-4.1909,-4.1905,-4.1918,-4.1899,-4.1935,-4.1893,-4.1943,-4.1908,-4.1921,-4.1921,-4.1924,-4.1926,-4.188,-4.1952,-4.2073,-4.2085,-4.1929,-4.1927,-4.1926,0,-4.1806,-4.1848,-4.1894,-4.1901,-4.1909,-4.193,-4.1934,-4.1942,-4.1956,-4.1973,-4.1982,-4.2003,-4.2014,-4.203,-4.2017,-4.1987,-4.2068,-4.2025,-4.2065,-4.2066,-4.2084,-4.2083,-4.2209,-4.2092,-4.2092,-4.2092,-4.2092,0,-4.1904,-4.1947,-4.1931,-4.1959,-4.2006,-4.1988,-4.2034,-4.2034,-4.2041,-4.2068,-4.2042,-4.2067,-4.2048,-4.2072,-4.2062,-4.2104,-4.211,-4.2107,-4.2104,-4.2109,-4.211,-4.2117,-4.2111,-4.2095,-4.2094,-4.2094,-4.2093,0,-4.2004,-4.1995,-4.2043,-4.2046,-4.2047,-4.2082,-4.2083,-4.2109,-4.2104,-4.2138,-4.2145,-4.2137,-4.2164,-4.2152,-4.218,-4.2173,-4.2228,-4.2217,-4.2225,-4.2222,-4.2263,-4.2259,-4.2398,-4.2415,-4.2287,-4.2289,-4.229,0,-4.2067,-4.2099,-4.2106,-4.2122,-4.2128,-4.2155,-4.217,-4.2153,-4.2169,-4.2182,-4.2206,-4.2231,-4.2249,-4.2293,-4.2289,-4.231,-4.23,-4.2347,-4.2303,-4.2307,-4.23,-4.2299,-4.2301,-4.2356,-4.2357,-4.2359,-4.236,0,-4.218,-4.2174,-4.2197,-4.2218,-4.2236,-4.2251,-4.2264,-4.2279,-4.2263,-4.2282,-4.2309,-4.2324,-4.2352,-4.2377,-4.2395,-4.2398,-4.2376,-4.2373,-4.2384,-4.239,-4.2393,-4.2392,-4.2249,-4.237,-4.2369,-4.2369,-4.2368,-4.2368,-4.2264,-4.2291,-4.2299,-4.2325,-4.2333,-4.2346,-4.237,-4.2367,-4.239,-4.2412,-4.2401,-4.2432,-4.244,-4.2463,-4.2468,-4.2492,-4.2474,-4.2489,-4.2493,-4.2497,-4.2502,-4.2389,-4.2496,-4.2495,-4.2495,-4.2495,-4.2494,0,-4.2375,-4.2379,-4.2403,-4.2422,-4.2442,-4.242,-4.2433,-4.2451,-4.2479,-4.2489,-4.2507,-4.2538,-4.2562,-4.2559,-4.258,-4.26,-4.259,-4.2606,-4.2604,-4.2605,-4.2518,-4.2506,-4.2613,-4.2613,-4.2613,-4.2613,-4.2613,-4.2613,-4.2436,-4.248,-4.2475,-4.2522,-4.2525,-4.2556,-4.2566,-4.2577,-4.2584,-4.262,-4.2639,-4.2638,-4.2642,-4.2663,-4.2683,-4.2682,-4.2691,-4.271,-4.2705,-4.2623,-4.2612,-4.26,-4.259,-4.2713,-4.2713,-4.2791,-4.2792,-4.2792]}]]